Santander Airport, Spain

7:19 PM CET en Diciembre 15, 2018 (GMT +0100)
Santander Airport

Tiempo Historia de LEXJ - Diciembre, 2018

Change the Weather History Date:

Viernes, Diciembre 7, 2018

  Actual Average Record
Temperature  
Temperatura media 52 ° F -  
Temperatura máxima 62 ° F 53 ° F 71 ° F (2000)
Temperatura mínima 41 ° F 43 ° F 33 ° F (1997)
Degree Days  
Grados día de calefacción 14    
Growing Degree Days 2 (Base 50)    
Moisture  
Punto de rocío 47 ° F    
Average Humidity 82    
Maximum Humidity 100    
Minimum Humidity 43    
Precipitación  
Precipitación 0.03 pul - - ()
Presión al nivel del mar  
Presión al nivel del mar 30.32 pul    
Viento  
Velocidad del viento 6 mph ()    
Velocidad máxima del viento 22 mph    
Max Gust Speed 34 mph    
Visibilidad 6.1 Millas    
Eventos Lluvia    
Averages and records for this station are not official NWS values.
T = Trace of Precipitation, MM = Missing Value Source: Averaged Metar Reports

Daily Weather History Graph

Daily Weather History Graph

Search for Another Location

Airport or City:

Astronomía

Dec. 07, 2018 Salida Puesta
Hora real 8:34 AM CET 5:39 PM CET
Crepúsculo civil 8:01 AM CET 6:11 PM CET
Crepúsculo náutico 7:25 AM CET 6:47 PM CET
Crepúsculo astronómico 6:51 AM CET 7:21 PM CET
Luna 8:26 AM CET (12/7) 6:06 PM CET (12/7)
Horas de luz 10h 09m
Horas de luz
9h 05m
Luna nueva, 0% of the Moon is Illuminated
Dic 7
Luna nueva
Dic 15
Cuarto creciente
Dic 22
Luna llena
Dic 29
Cuarto menguante
Ene 6
Nueva

Hourly Weather History & Observations

Hora (CET) Temp. Vientos helados Punto de rocío Humedad Presión Visibilidad Wind Dir Velocidad del viento Velocidad de ráfagas Precip Eventos Condiciones
12:00 AM 49 ° F - 45 ° F 83% 30.38 pul - Sin viento Sin viento - -  
12:00 AM 50.0 ° F - 46.4 ° F 87% 30.36 pul 5.0 mi Variable 2.3 mph - N/A   Desconocido
12:30 AM 50.0 ° F - 44.6 ° F 82% 30.36 pul 4.3 mi Variable 2.3 mph - N/A   Desconocido
1:00 AM 46 ° F - 43 ° F 84% 30.37 pul - SE 2.3 mph - -  
1:00 AM 48.2 ° F - 44.6 ° F 87% 30.36 pul 5.0 mi Sur 2.3 mph - N/A   Desconocido
1:30 AM 48.2 ° F - 46.4 ° F 93% 30.33 pul 5.6 mi Variable 2.3 mph - N/A   Desconocido
2:00 AM 43 ° F - 41 ° F 91% 30.34 pul - SE 3.5 mph - -  
2:00 AM 48.2 ° F - 44.6 ° F 87% 30.33 pul 5.0 mi Sin viento Sin viento - N/A   Desconocido
2:30 AM 46.4 ° F - 46.4 ° F 100% 30.33 pul 3.7 mi Variable 2.3 mph - N/A   Desconocido
3:00 AM 44 ° F - 42 ° F 92% 30.33 pul - Este 1.2 mph - -  
3:00 AM 46.4 ° F - 44.6 ° F 93% 30.33 pul 5.0 mi Variable 2.3 mph - N/A   Desconocido
3:30 AM 46.4 ° F - 44.6 ° F 93% 30.30 pul 5.0 mi SE 1.2 mph - N/A   Desconocido
4:00 AM 43 ° F - 42 ° F 96% 30.31 pul - Sur 4.6 mph - -  
4:00 AM 46.4 ° F - 44.6 ° F 93% 30.30 pul 4.3 mi Variable 2.3 mph - N/A   Desconocido
4:30 AM 44.6 ° F 43.1 ° F 44.6 ° F 100% 30.27 pul 4.3 mi SE 3.5 mph - N/A   Desconocido
5:00 AM 44 ° F - 43 ° F 96% 30.29 pul - Este 2.3 mph - -  
5:00 AM 44.6 ° F - 44.6 ° F 100% 30.27 pul 4.3 mi Variable 1.2 mph - N/A   Desconocido
5:30 AM 44.6 ° F 43.1 ° F 44.6 ° F 100% 30.27 pul - ESE 3.5 mph - N/A   Despejado
6:00 AM 44 ° F - 43 ° F 96% 30.27 pul - ESE 1.2 mph - -  
6:00 AM 44.6 ° F - 44.6 ° F 100% 30.24 pul - SE 2.3 mph - N/A   Despejado
6:30 AM 44.6 ° F - 44.6 ° F 100% 30.24 pul - ONO 1.2 mph - N/A   Despejado
7:00 AM 47 ° F - 42 ° F 77% 30.27 pul 12 mi SO 5.8 mph - -   Despejado
7:00 AM 46.4 ° F 44.3 ° F 41.0 ° F 81% 30.27 pul - SO 4.6 mph - N/A   Despejado
7:30 AM 46.4 ° F - 42.8 ° F 87% 30.27 pul - Este 1.2 mph - N/A   Despejado
8:00 AM 46.4 ° F - 41.0 ° F 81% 30.30 pul - Norte 1.2 mph - N/A   Despejado
8:30 AM 50.0 ° F - 41.0 ° F 71% 30.30 pul - SO 6.9 mph - N/A   Despejado
9:00 AM 46.4 ° F 45.2 ° F 41.0 ° F 81% 30.30 pul - Oeste 3.5 mph - N/A   Despejado
9:30 AM 50.0 ° F - 42.8 ° F 76% 30.30 pul - Variable 3.5 mph - N/A   Despejado
10:00 AM 53 ° F - 43 ° F 59% 30.29 pul 19 mi SSO 8.1 mph - -   Nubes dispersas
10:00 AM 51.8 ° F - 41.0 ° F 67% 30.27 pul 6.2 mi SSO 6.9 mph - N/A   Parcialmente nublado
10:30 AM 53.6 ° F - 42.8 ° F 67% 30.27 pul 6.2 mi SSO 5.8 mph - N/A   Parcialmente nublado
11:00 AM 57 ° F - 43 ° F 49% 30.28 pul - SO 6.9 mph - -  
11:00 AM 53.6 ° F - 44.6 ° F 72% 30.27 pul 6.2 mi Variable 1.2 mph - N/A   Parcialmente nublado
11:30 AM 55.4 ° F - 46.4 ° F 72% 30.24 pul 6.2 mi SE 4.6 mph - N/A   Parcialmente nublado
12:00 PM 61 ° F - 44 ° F 43% 30.25 pul - SO 9.2 mph - -  
12:00 PM 57.2 ° F - 48.2 ° F 72% 30.24 pul 6.2 mi NNO 2.3 mph - N/A   Parcialmente nublado
12:30 PM 60.8 ° F - 44.6 ° F 55% 30.24 pul 6.2 mi SO 10.4 mph - N/A   Nubes dispersas
1:00 PM 62 ° F - 46 ° F 45% 30.25 pul 19 mi SSO 8.1 mph - -   Muy nublado
1:00 PM 62.6 ° F - 44.6 ° F 52% 30.24 pul 6.2 mi SO 9.2 mph - N/A   Muy nublado
1:30 PM 62.6 ° F - 44.6 ° F 52% 30.24 pul 6.2 mi SO 9.2 mph - N/A   Muy nublado
2:00 PM 62.6 ° F - 44.6 ° F 52% 30.21 pul 6.2 mi SO 11.5 mph - N/A   Nublado
2:30 PM 60.8 ° F - 51.8 ° F 72% 30.24 pul 6.2 mi OSO 11.5 mph - N/A   Muy nublado
3:00 PM 60.8 ° F - 53.6 ° F 77% 30.24 pul 6.2 mi Oeste 12.7 mph - N/A Lluvia Lluvia débil
3:30 PM 59.0 ° F - 55.4 ° F 88% 30.27 pul 6.2 mi ONO 18.4 mph - N/A Lluvia Lluvia débil
4:00 PM 57 ° F - 54 ° F 88% 30.31 pul 11 mi ONO 18.4 mph - - Lluvia Lluvia débil
4:00 PM 57.2 ° F - 53.6 ° F 88% 30.30 pul 6.2 mi NO 19.6 mph 32.2 mph N/A Lluvia Lluvia débil
4:30 PM 57.2 ° F - 51.8 ° F 82% 30.30 pul 3.1 mi Oeste 19.6 mph - N/A Lluvia Lluvia débil
5:00 PM 56 ° F - 54 ° F 90% 30.34 pul - Oeste 11.5 mph - -  
5:00 PM 55.4 ° F - 53.6 ° F 94% 30.33 pul 5.6 mi Oeste 15.0 mph - N/A Lluvia Lluvia débil
5:15 PM 57.2 ° F - 53.6 ° F 88% 30.33 pul 2.5 mi Oeste 17.3 mph 28.8 mph N/A Lluvia Lluvia débil
5:30 PM 55.4 ° F - 53.6 ° F 94% 30.33 pul 3.1 mi ONO 21.9 mph 34.5 mph N/A Lluvia Lluvia
5:38 PM 55.4 ° F - 51.8 ° F 88% 30.33 pul 6.2 mi Oeste 21.9 mph 34.5 mph N/A Lluvia Lluvia débil
6:00 PM 55.4 ° F - 51.8 ° F 88% 30.33 pul 5.6 mi Oeste 13.8 mph - N/A Lluvia Lluvia débil
6:30 PM 55.4 ° F - 51.8 ° F 88% 30.36 pul 4.3 mi Oeste 16.1 mph - N/A Lluvia Lluvia débil
7:00 PM 55 ° F - 52 ° F 88% 30.38 pul 4 mi Oeste 16.1 mph - - Lluvia Lluvia débil
7:00 PM 55.4 ° F - 51.8 ° F 88% 30.36 pul 4.3 mi Oeste 19.6 mph - N/A Lluvia Lluvia débil
7:30 PM 55.4 ° F - 51.8 ° F 88% 30.36 pul 5.0 mi Oeste 17.3 mph - N/A   Muy nublado
8:00 PM 54 ° F - 51 ° F 86% 30.40 pul - Oeste 20.7 mph - -  
8:00 PM 53.6 ° F - 50.0 ° F 88% 30.39 pul 4.3 mi Oeste 19.6 mph - N/A   Muy nublado
8:30 PM 53.6 ° F - 50.0 ° F 88% 30.39 pul 6.2 mi Oeste 17.3 mph - N/A Lluvia Lluvia débil
9:00 PM 53 ° F - 51 ° F 90% 30.42 pul - SO 10.4 mph - -  
9:00 PM 53.6 ° F - 50.0 ° F 88% 30.39 pul 6.2 mi OSO 10.4 mph - N/A   Muy nublado
9:30 PM 53.6 ° F - 50.0 ° F 88% 30.39 pul 6.2 mi OSO 9.2 mph - N/A   Muy nublado
10:00 PM 53.6 ° F - 50.0 ° F 88% 30.42 pul 6.2 mi OSO 8.1 mph - N/A   Muy nublado
10:30 PM 53.6 ° F - 50.0 ° F 88% 30.42 pul 6.2 mi OSO 5.8 mph - N/A   Muy nublado
11:00 PM 53 ° F - 48 ° F 78% 30.42 pul - SO 6.9 mph - -  
11:00 PM 51.8 ° F - 48.2 ° F 88% 30.42 pul 6.2 mi SO 8.1 mph - N/A   Muy nublado
11:30 PM 51.8 ° F - 46.4 ° F 82% 30.39 pul 4.3 mi SO 8.1 mph - N/A   Parcialmente nublado